�N����,����,�~����,�C��,���x,�C��,����,���ϕ���,�ő�u�ԕ���,�ő厞����,���˗�,�I�_���x,�n�����x,�ő啗���N��,DTYPE
"19/05/29","00:10",0.0,16.6,95.1,1001.2,317.4,2.0,3.2,314.5,0.00,15.9,19.3,"00:06:40",1
"19/05/29","00:20",0.0,16.6,95.0,1001.2,326.7,2.0,3.4,339.8,0.00,15.8,19.3,"00:10:24",1
"19/05/29","00:30",0.0,16.6,95.1,1001.0,318.9,1.6,2.8,329.6,0.00,15.9,19.4,"00:21:44",1
"19/05/29","00:40",0.0,16.5,94.9,1001.5,315.2,1.1,2.5,330.3,0.00,15.7,19.4,"00:38:40",1
"19/05/29","00:50",0.0,16.4,94.9,1001.0,314.2,0.8,1.8,334.0,0.00,15.6,19.4,"00:40:08",1
"19/05/29","01:00",0.0,16.4,94.9,1001.2,316.7,1.1,1.6,319.2,0.00,15.6,19.4,"00:57:44",1
"19/05/29","01:10",0.0,16.3,95.0,1001.5,310.9,1.0,1.2,316.7,0.00,15.5,19.3,"01:05:12",1
"19/05/29","01:20",0.0,16.2,94.8,1001.2,340.9,0.6,1.2,342.0,0.00,15.4,19.2,"01:12:00",1
"19/05/29","01:30",0.0,16.0,94.8,1001.0,331.0,1.0,1.4,323.6,0.00,15.2,19.1,"01:22:48",1
"19/05/29","01:40",0.0,16.0,95.1,1001.2,327.6,1.5,2.1,326.9,0.00,15.3,19.3,"01:37:38",1
"19/05/29","01:50",0.0,15.9,95.0,1001.2,345.2,1.1,1.9,354.2,0.00,15.1,19.3,"01:45:06",1
"19/05/29","02:00",0.0,15.7,95.1,1001.5,326.3,1.5,1.9,315.3,0.00,15.0,19.2,"01:53:04",1
"19/05/29","02:10",0.0,15.7,95.2,1001.0,343.2,1.2,1.9,3.0,0.00,15.0,19.0,"02:08:56",1
"19/05/29","02:20",0.0,15.5,95.2,1001.0,313.5,1.1,1.8,343.3,0.00,14.8,19.1,"02:12:24",1
"19/05/29","02:30",0.0,15.3,95.2,1001.2,295.5,1.1,1.8,324.7,0.00,14.6,19.2,"02:24:56",1
"19/05/29","02:40",0.0,15.3,95.4,1001.5,317.8,2.0,3.4,332.1,0.00,14.6,19.0,"02:37:44",1
"19/05/29","02:50",0.0,15.3,95.1,1001.2,319.9,1.7,3.3,342.4,0.00,14.6,18.8,"02:45:12",1
"19/05/29","03:00",0.0,15.4,95.2,1001.2,301.5,1.5,2.5,264.7,0.00,14.7,19.0,"02:51:28",1
"19/05/29","03:10",0.0,15.3,95.0,1001.2,319.4,1.3,2.6,318.6,0.00,14.5,18.8,"03:04:16",1
"19/05/29","03:20",0.0,15.3,94.8,1001.2,315.7,1.1,2.0,326.3,0.00,14.5,18.7,"03:17:28",1
"19/05/29","03:30",0.0,15.3,94.7,1001.7,315.9,1.5,3.1,344.9,0.00,14.5,18.7,"03:26:24",1
"19/05/29","03:40",0.0,15.4,94.4,1001.5,329.2,1.7,2.8,332.2,0.00,14.5,18.7,"03:32:48",1
"19/05/29","03:50",0.0,15.3,94.1,1001.2,311.9,1.7,3.7,332.9,0.00,14.4,18.7,"03:43:20",1
"19/05/29","04:00",0.0,15.4,93.7,1001.5,318.1,2.0,3.9,318.5,0.00,14.4,18.8,"03:52:08",1
"19/05/29","04:10",0.0,15.4,93.4,1001.7,321.5,2.0,3.4,342.2,0.00,14.4,18.7,"04:01:52",1
"19/05/29","04:20",0.0,15.4,93.1,1001.9,338.0,2.1,4.2,344.4,0.00,14.3,18.4,"04:15:12",1
"19/05/29","04:30",0.0,15.4,92.5,1001.7,329.9,1.7,2.9,322.5,0.00,14.2,18.5,"04:22:00",1
"19/05/29","04:40",0.0,15.4,92.1,1001.9,315.8,1.3,2.6,336.2,0.00,14.2,18.5,"04:30:48",1
"19/05/29","04:50",0.0,15.4,91.9,1001.9,324.3,1.7,2.8,324.9,0.00,14.1,18.4,"04:47:12",1
"19/05/29","05:00",0.0,15.4,91.5,1001.9,317.8,2.0,2.9,317.8,0.00,14.1,18.5,"04:55:04",1
"19/05/29","05:10",0.0,15.4,91.1,1002.2,300.1,1.6,3.1,346.9,0.00,14.0,18.4,"05:03:28",1
"19/05/29","05:20",0.0,15.4,90.9,1002.2,330.8,1.1,1.9,313.3,0.00,14.0,18.5,"05:11:36",1
"19/05/29","05:30",0.0,15.2,91.3,1002.4,323.7,0.8,1.6,353.5,0.00,13.8,18.2,"05:25:52",1
"19/05/29","05:40",0.0,14.9,91.7,1002.4,323.0,0.7,1.3,16.0,0.00,13.6,18.4,"05:39:04",1
"19/05/29","05:50",0.0,14.8,92.2,1002.6,337.3,0.8,1.7,55.7,0.00,13.6,18.5,"05:45:52",1
"19/05/29","06:00",0.0,14.8,92.7,1002.2,320.7,0.8,1.9,318.0,0.01,13.7,18.2,"05:55:52",1
"19/05/29","06:10",0.0,14.8,92.7,1002.4,320.4,1.0,2.0,329.2,0.01,13.7,18.2,"06:01:44",1
"19/05/29","06:20",0.0,14.8,93.1,1003.1,298.5,0.8,1.9,311.6,0.02,13.7,18.1,"06:19:44",1
"19/05/29","06:30",0.0,14.9,93.3,1003.4,330.1,1.3,2.2,326.7,0.02,13.9,18.4,"06:20:24",1
"19/05/29","06:40",0.0,15.1,93.7,1003.4,314.2,1.0,2.6,330.8,0.03,14.1,18.2,"06:33:12",1
"19/05/29","06:50",0.0,15.1,92.9,1003.1,303.9,1.1,1.9,326.0,0.04,14.0,18.3,"06:46:08",1
"19/05/29","07:00",0.0,15.2,92.7,1003.6,313.7,1.6,2.6,332.1,0.05,14.1,18.2,"06:51:20",1
"19/05/29","07:10",0.0,15.7,92.0,1003.8,331.7,0.7,1.7,348.0,0.05,14.4,18.3,"07:06:32",1
"19/05/29","07:20",0.0,16.3,92.6,1003.8,258.8,0.5,0.9,332.3,0.06,15.1,18.2,"07:10:08",1
"19/05/29","07:30",0.0,16.5,91.8,1003.4,301.0,0.7,1.3,320.7,0.07,15.2,18.5,"07:27:12",1
"19/05/29","07:40",0.0,16.5,90.4,1003.6,301.7,0.7,1.4,319.5,0.09,15.0,18.3,"07:33:04",1
"19/05/29","07:50",0.0,16.7,89.7,1004.3,300.5,0.8,2.2,340.2,0.09,15.0,18.5,"07:40:02",1
"19/05/29","08:00",0.0,16.6,86.8,1003.4,291.3,0.7,2.7,234.2,0.11,14.4,18.6,"07:59:52",1
"19/05/29","08:10",0.0,17.0,84.4,1003.8,269.5,1.0,1.9,229.7,0.12,14.4,18.6,"08:01:52",1
"19/05/29","08:20",0.0,17.0,83.5,1004.5,302.0,1.2,1.9,327.7,0.11,14.2,18.7,"08:11:52",1
"19/05/29","08:30",0.0,16.9,83.7,1003.8,309.5,1.1,2.2,323.9,0.14,14.2,18.8,"08:26:56",1
"19/05/29","08:40",0.0,17.2,82.1,1003.8,297.1,1.3,2.5,339.4,0.14,14.2,19.0,"08:39:36",1
"19/05/29","08:50",0.0,17.3,81.7,1004.1,291.9,1.5,3.2,314.8,0.15,14.2,18.7,"08:47:04",1
"19/05/29","09:00",0.0,17.4,80.1,1003.8,316.3,1.8,4.4,336.6,0.16,14.0,19.1,"08:58:00",1
"19/05/29","09:10",0.0,17.8,78.2,1003.1,304.0,1.6,3.4,354.4,0.19,14.0,19.2,"09:00:24",1
"19/05/29","09:20",0.0,18.9,74.7,1003.4,269.0,1.0,2.5,240.5,0.23,14.4,19.2,"09:11:44",1
"19/05/29","09:30",0.0,18.6,72.3,1003.4,288.9,1.2,2.8,334.2,0.24,13.6,19.2,"09:22:16",1
"19/05/29","09:40",0.0,19.0,72.5,1003.4,259.2,1.1,2.2,238.7,0.25,14.0,19.4,"09:30:02",1
"19/05/29","09:50",0.0,19.2,71.0,1003.1,253.2,1.2,2.4,231.6,0.25,13.9,19.3,"09:40:08",1
"19/05/29","10:00",0.0,19.2,69.2,1003.1,307.9,1.1,3.5,340.9,0.28,13.5,19.6,"09:53:20",1
"19/05/29","10:10",0.0,19.6,68.6,1003.1,336.2,0.8,2.7,331.5,0.29,13.7,19.7,"10:03:44",1
"19/05/29","10:20",0.0,20.3,71.2,1003.1,268.7,1.1,2.6,219.9,0.31,15.0,19.6,"10:14:32",1
"19/05/29","10:30",0.0,19.9,70.4,1002.9,299.8,1.6,3.6,342.7,0.32,14.4,19.7,"10:28:08",1
"19/05/29","10:40",0.0,19.6,69.9,1002.9,287.4,1.3,2.6,314.0,0.29,14.0,19.9,"10:39:28",1
"19/05/29","10:50",0.0,20.0,70.0,1002.6,308.2,1.2,3.4,338.1,0.28,14.4,20.3,"10:40:56",1
"19/05/29","11:00",0.0,19.9,69.0,1002.4,273.7,1.3,3.2,233.1,0.27,14.1,20.2,"10:56:32",1
"19/05/29","11:10",0.0,19.8,69.8,1002.6,281.9,1.7,4.0,311.7,0.27,14.2,20.2,"11:07:04",1
"19/05/29","11:20",0.0,20.2,68.6,1002.4,296.1,2.0,3.6,331.8,0.32,14.3,20.3,"11:18:00",1
"19/05/29","11:30",0.0,20.5,68.1,1002.4,290.6,1.7,5.0,236.8,0.34,14.5,20.5,"11:25:44",1
"19/05/29","11:40",0.0,21.3,68.4,1002.6,301.0,1.6,4.3,330.1,0.40,15.3,20.8,"11:31:12",1
"19/05/29","11:50",0.0,21.1,64.9,1002.4,269.1,1.7,3.7,343.0,0.42,14.3,20.7,"11:40:40",1
"19/05/29","12:00",0.0,21.7,65.6,1002.4,286.2,1.6,3.1,261.8,0.43,15.0,21.1,"11:50:24",1
"19/05/29","12:10",0.0,21.9,64.7,1002.2,286.8,1.7,3.9,332.3,0.46,15.0,21.2,"12:06:56",1
"19/05/29","12:20",0.0,21.7,63.9,1001.9,300.5,1.7,4.7,350.0,0.40,14.6,21.3,"12:14:00",1
"19/05/29","12:30",0.0,21.6,64.0,1002.2,267.0,1.5,4.1,350.3,0.36,14.5,21.3,"12:24:00",1
"19/05/29","12:40",0.0,21.4,61.4,1002.2,270.2,2.0,3.7,333.7,0.41,13.7,21.6,"12:33:36",1
"19/05/29","12:50",0.0,21.7,61.9,1001.7,258.7,1.7,3.7,233.3,0.35,14.1,21.7,"12:45:12",1
"19/05/29","13:00",0.0,22.2,62.3,1001.7,262.6,1.5,3.6,228.4,0.36,14.7,21.8,"12:51:44",1
"19/05/29","13:10",0.0,22.2,60.2,1001.5,293.8,1.0,2.5,322.3,0.32,14.2,21.7,"13:05:28",1
"19/05/29","13:20",0.0,21.9,56.0,1001.7,356.9,1.8,6.4,343.1,0.28,12.8,21.7,"13:18:32",1
"19/05/29","13:30",0.0,22.5,53.8,1001.7,317.2,2.5,6.2,331.6,0.37,12.7,22.0,"13:24:24",1
"19/05/29","13:40",0.0,22.5,51.9,1001.2,318.8,2.1,5.2,333.6,0.31,12.2,22.1,"13:35:20",1
"19/05/29","13:50",0.0,23.0,50.6,1001.7,322.8,2.5,5.6,323.2,0.37,12.2,22.1,"13:41:36",1
"19/05/29","14:00",0.0,23.2,42.7,1001.2,343.4,2.6,6.3,344.1,0.37,9.9,22.0,"13:57:28",1
"19/05/29","14:10",0.0,23.0,38.8,1001.7,332.4,3.6,7.4,338.2,0.37,8.3,22.2,"14:08:16",1
"19/05/29","14:20",0.0,22.9,38.6,1001.7,342.2,2.6,5.5,311.9,0.31,8.1,22.1,"14:12:40",1
"19/05/29","14:30",0.0,23.6,39.2,1001.5,341.2,2.6,4.5,346.6,0.41,9.0,22.2,"14:28:32",1
"19/05/29","14:40",0.0,22.4,40.1,1001.5,334.4,3.2,7.3,325.6,0.27,8.2,22.1,"14:34:16",1
"19/05/29","14:50",0.0,22.6,38.6,1001.2,11.9,2.1,5.1,11.0,0.29,7.8,22.4,"14:43:52",1
"19/05/29","15:00",0.0,23.0,37.9,1001.5,12.2,2.1,5.0,30.5,0.34,7.9,22.3,"14:50:08",1
"19/05/29","15:10",0.0,22.9,37.4,1001.2,1.6,2.3,5.4,349.1,0.29,7.6,22.3,"15:02:24",1
"19/05/29","15:20",0.0,22.9,38.7,1001.0,4.0,2.1,4.2,333.3,0.29,8.2,22.2,"15:14:40",1
"19/05/29","15:30",0.0,22.8,36.5,1001.2,348.2,2.7,4.5,332.5,0.35,7.2,22.6,"15:23:12",1
"19/05/29","15:40",0.0,23.5,36.9,1001.0,353.5,2.6,6.5,330.2,0.38,8.0,22.6,"15:30:40",1
"19/05/29","15:50",0.0,24.2,38.6,1001.2,352.7,2.1,4.4,8.9,0.40,9.3,22.4,"15:40:24",1
"19/05/29","16:00",0.0,23.5,38.3,1001.0,339.1,3.1,7.9,322.9,0.36,8.5,22.5,"15:53:52",1
"19/05/29","16:10",0.0,22.9,40.8,1001.0,340.9,3.4,10.6,339.8,0.28,8.9,22.4,"16:04:16",1
"19/05/29","16:20",0.0,23.6,39.2,1000.8,342.4,2.3,5.1,1.4,0.29,9.0,22.4,"16:15:44",1
"19/05/29","16:30",0.0,23.9,38.8,1001.0,342.4,2.6,6.2,333.4,0.30,9.1,22.5,"16:24:32",1
"19/05/29","16:40",0.0,23.8,36.3,1001.0,346.6,2.6,7.1,340.4,0.28,8.0,22.6,"16:38:48",1
"19/05/29","16:50",0.0,23.4,38.0,1001.0,350.8,3.1,5.9,6.5,0.27,8.3,22.6,"16:47:12",1
"19/05/29","17:00",0.0,23.4,37.8,1001.0,357.2,2.5,5.0,333.6,0.25,8.2,22.5,"16:51:28",1
"19/05/29","17:10",0.0,23.1,41.1,1000.8,334.9,2.8,5.8,336.3,0.21,9.2,22.6,"17:08:48",1
"19/05/29","17:20",0.0,23.0,41.3,1001.5,351.9,2.3,5.5,338.0,0.15,9.2,22.6,"17:17:52",1
"19/05/29","17:30",0.0,22.8,40.8,1001.2,347.7,2.3,4.7,6.6,0.06,8.8,22.4,"17:25:44",1
"19/05/29","17:40",0.0,22.6,43.1,1001.2,351.3,2.3,4.2,337.2,0.05,9.5,22.2,"17:34:56",1
"19/05/29","17:50",0.0,22.5,43.7,1001.5,343.6,2.1,4.9,342.3,0.04,9.6,22.4,"17:41:12",1
"19/05/29","18:00",0.0,22.2,41.9,1001.9,3.7,2.1,4.8,3.9,0.04,8.7,22.2,"17:52:08",1
"19/05/29","18:10",0.0,21.9,43.5,1001.9,356.4,2.3,5.5,339.0,0.03,9.0,22.2,"18:06:08",1
"19/05/29","18:20",0.0,21.7,44.9,1001.9,353.3,2.0,4.8,47.3,0.03,9.3,22.2,"18:16:40",1
"19/05/29","18:30",0.0,21.3,45.8,1002.2,355.0,2.0,4.9,359.3,0.02,9.2,21.8,"18:22:00",1
"19/05/29","18:40",0.0,21.0,46.3,1002.4,350.9,1.6,3.7,354.1,0.02,9.1,21.8,"18:37:04",1
"19/05/29","18:50",0.0,20.5,47.3,1002.6,348.9,1.7,3.1,347.2,0.02,8.9,21.7,"18:46:56",1
"19/05/29","19:00",0.0,20.0,48.7,1002.6,343.8,2.1,4.5,346.4,0.01,8.9,21.7,"18:52:00",1
"19/05/29","19:10",0.0,19.5,51.1,1003.1,338.0,1.7,3.3,333.3,0.00,9.2,21.5,"19:01:52",1
"19/05/29","19:20",0.0,19.0,53.7,1003.4,339.6,1.3,2.2,327.7,0.00,9.4,21.4,"19:13:36",1
"19/05/29","19:30",0.0,18.5,55.4,1003.6,331.6,1.2,3.2,331.0,0.00,9.4,21.3,"19:23:28",1
"19/05/29","19:40",0.0,17.9,58.9,1003.6,318.3,1.0,2.0,341.2,0.00,9.8,21.2,"19:32:48",1
"19/05/29","19:50",0.0,17.2,63.1,1004.1,272.9,0.8,1.3,240.5,0.00,10.2,21.0,"19:49:36",1
"19/05/29","20:00",0.0,17.0,64.8,1003.8,316.5,1.2,2.7,327.1,0.00,10.4,20.8,"19:53:04",1
"19/05/29","20:10",0.0,16.4,66.1,1004.1,326.6,1.1,2.2,327.6,0.00,10.1,20.8,"20:08:48",1
"19/05/29","20:20",0.0,16.0,67.8,1004.3,300.9,1.1,1.7,327.6,0.00,10.1,20.6,"20:12:08",1
"19/05/29","20:30",0.0,16.1,67.2,1004.5,305.6,1.7,3.1,327.2,0.00,10.1,20.5,"20:23:28",1
"19/05/29","20:40",0.0,15.7,67.5,1004.8,298.6,1.1,1.9,332.1,0.00,9.7,20.2,"20:33:52",1
"19/05/29","20:50",0.0,15.4,68.8,1005.0,321.5,1.5,2.6,328.6,0.00,9.7,20.3,"20:42:00",1
"19/05/29","21:00",0.0,15.1,69.8,1005.0,312.0,1.3,2.2,304.1,0.00,9.7,20.1,"20:54:24",1
"19/05/29","21:10",0.0,14.8,71.2,1005.2,313.0,1.2,2.4,326.7,0.00,9.7,20.0,"21:09:36",1
"19/05/29","21:20",0.0,14.7,72.4,1005.5,333.0,2.1,3.5,327.5,0.00,9.8,19.8,"21:13:52",1
"19/05/29","21:30",0.0,14.7,73.2,1005.5,333.9,2.1,3.5,338.5,0.00,10.0,19.7,"21:24:56",1
"19/05/29","21:40",0.0,14.5,73.5,1005.5,334.6,1.7,2.7,344.2,0.00,9.9,19.7,"21:39:36",1
"19/05/29","21:50",0.0,14.3,74.5,1005.7,331.3,1.6,3.3,335.5,0.00,9.9,19.5,"21:42:40",1
"19/05/29","22:00",0.0,14.1,75.3,1006.0,329.2,1.6,2.7,327.8,0.00,9.8,19.5,"21:54:16",1
"19/05/29","22:10",0.0,13.9,76.4,1005.7,329.9,1.5,2.4,339.6,0.00,9.9,19.5,"22:03:52",1
"19/05/29","22:20",0.0,13.7,76.8,1005.7,324.6,1.8,2.6,319.3,0.00,9.7,19.3,"22:12:00",1
"19/05/29","22:30",0.0,13.6,76.9,1005.7,286.7,1.5,2.7,322.5,0.00,9.7,19.2,"22:20:48",1
"19/05/29","22:40",0.0,13.2,77.8,1005.5,284.6,1.2,1.8,313.9,0.00,9.5,19.1,"22:30:02",1
"19/05/29","22:50",0.0,13.1,78.8,1005.5,276.4,1.5,2.7,266.0,0.00,9.5,19.1,"22:49:46",1
"19/05/29","23:00",0.0,13.1,79.4,1006.0,275.1,1.6,2.7,243.1,0.00,9.7,18.8,"22:50:32",1
"19/05/29","23:10",0.0,13.2,77.2,1006.0,297.9,1.7,2.6,324.1,0.00,9.3,18.8,"23:01:04",1
"19/05/29","23:20",0.0,12.8,78.2,1006.0,302.3,1.5,3.1,324.6,0.00,9.1,18.8,"23:19:28",1
"19/05/29","23:30",0.0,12.4,80.1,1006.2,294.0,1.3,2.1,320.6,0.00,9.1,18.6,"23:21:20",1
"19/05/29","23:40",0.0,12.0,80.6,1006.2,294.5,1.0,1.9,317.8,0.00,8.8,18.6,"23:31:28",1
"19/05/29","23:50",0.0,11.6,82.2,1005.7,293.9,0.7,1.3,304.1,0.00,8.7,18.6,"23:43:36",1
"19/05/29","24:00",0.0,11.5,83.8,1005.7,300.5,1.5,2.4,320.8,0.00,8.9,18.3,"23:58:24",1
